Location: *
(50.5492°N, 7.7469°E)
Time: 07:48:02
(UTC+00:00)

Meteor 2-10 - Pass Details

Date: 21 October 2019
Orbit: 738 x 868 km, 81.2° (Epoch: 19 November)

Event Time Altitude Azimuth Distance (km) Brightness Sun altitude
Rises 17:14:07 0° 181° (S) 3,182 7.3 -8.4°
Reaches altitude 10° 17:16:27 10° 178° (S) 2,253 6.5 -8.7°
Maximum altitude 17:21:26 64° 98° (E) 818 3.9 -9.5°
Drops below altitude 10° 17:26:26 10° 18° (NNE) 2,262 6.2 -10.3°
Sets 17:28:47 0° 15° (NNE) 3,196 7.0 -10.7°
